Wind_Speed
5 5 6 6 6 6 5 6 7 8 9 9 9 10 10 11 11 11 11 12 11 11 10 10 10 10 10 9 9 8 8 8 8 7 7 6 6 6 6 5 5 5 5
4 4 5 5 5 5 5 5 6 7 7 8 9 9 10 10 10 10 11 11 11 10 10 9 9 9 9 8 8 8 8 8 7 7 7 6 6 6 6 6 6 6 5
3 3 4 4 4 4 4 4 5 5 6 7 7 8 8 9 9 10 10 9 9 9 9 9 8 8 8 8 7 7 7 7 7 6 6 6 6 6 6 6 6 5 6
2 3 3 4 4 3 3 3 4 5 5 5 6 6 6 6 7 7 8 8 7 7 7 8 8 8 8 7 7 6 6 6 6 6 6 6 5 5 5 5 5 5 5
2 2 3 3 3 3 3 3 4 4 4 4 5 5 5 5 5 6 6 6 6 6 7 7 7 7 7 6 6 6 6 6 6 5 5 5 5 5 5 5 5 5 5
2 3 3 3 3 3 3 3 4 4 4 4 4 4 4 4 4 5 5 5 5 5 6 6 6 6 6 5 5 5 5 5 5 5 5 5 5 5 4 5 4 5 5
3 3 3 3 3 3 3 3 4 4 4 4 4 3 3 3 3 3 4 4 4 5 5 5 5 5 5 4 4 4 4 4 5 5 5 5 5 5 4 4 5 5 5
2 3 4 4 4 3 3 4 4 4 4 4 4 3 3 3 3 2 3 3 4 4 4 5 5 5 4 4 4 4 4 4 4 4 5 5 5 5 4 4 5 6 6
2 3 4 4 4 4 4 4 5 5 5 4 4 4 3 3 2 2 2 3 3 3 4 4 4 4 4 4 4 4 4 3 3 4 4 5 5 5 5 4 5 5 6
2 3 4 4 5 4 4 4 5 5 5 5 4 4 3 3 2 2 2 2 3 3 3 3 3 3 3 3 3 3 4 4 4 4 4 5 5 5 5 4 4 5 5
3 3 4 4 5 5 5 5 5 6 6 5 5 4 4 3 3 2 2 2 2 2 2 2 3 3 3 3 3 3 4 4 4 4 4 4 4 4 4 4 4 5 5
4 4 4 4 5 5 5 5 5 6 6 6 6 5 5 4 3 3 2 2 2 2 1 2 2 2 2 2 3 3 3 4 4 3 4 4 4 4 4 4 4 5 5
4 4 4 4 5 5 6 6 6 6 6 6 6 6 5 5 4 3 2 2 2 1 1 1 1 2 2 2 3 3 3 3 3 3 3 4 4 4 4 4 4 5 5
6 5 5 5 5 5 6 6 7 6 7 7 7 6 6 5 5 4 3 2 2 1 1 0 1 2 1 2 2 3 3 3 3 2 2 3 4 4 4 5 5 5 5
7 6 5 5 5 6 6 6 7 7 7 8 7 7 6 5 5 5 4 4 3 2 1 1 1 1 1 2 2 3 3 3 2 2 3 3 3 4 4 4 4 5 5
8 6 6 6 5 6 7 7 8 8 8 8 8 7 7 6 5 5 5 4 4 3 2 2 1 1 1 1 2 2 3 3 2 2 2 2 3 4 4 4 4 5 5
8 7 7 7 7 7 8 9 8 8 8 8 8 8 8 7 6 6 5 5 5 4 3 2 2 1 1 0 1 2 3 3 2 2 2 2 3 3 4 4 4 5 5
8 8 8 7 8 8 8 9 9 9 8 8 8 8 8 8 7 6 6 6 5 5 4 3 2 2 1 1 0 1 2 2 2 2 2 2 2 3 4 4 5 5 5
9 8 8 8 8 8 8 9 9 10 9 9 9 9 9 8 8 7 6 7 7 6 5 4 3 3 2 2 1 1 2 2 2 2 1 1 1 2 3 4 4 4 5
10 9 9 9 9 9 8 9 10 10 10 10 9 10 10 9 9 8 7 7 7 7 6 5 4 4 4 3 2 2 2 2 2 2 1 1 1 2 2 3 4 4 4
11 10 10 10 10 10 9 9 9 10 11 11 10 11 11 11 10 9 8 8 8 8 7 7 6 6 5 4 3 3 3 3 2 2 1 1 2 2 2 3 4 4 5
12 12 11 11 11 11 10 10 10 10 11 11 10 11 11 11 11 10 10 9 9 9 8 8 7 7 6 5 5 4 4 3 2 2 1 1 2 2 2 2 3 4 5
13 13 12 12 12 11 11 12 12 12 11 11 11 11 11 11 11 11 11 10 10 10 9 9 9 8 8 7 6 5 5 4 3 3 2 2 2 3 3 4 4 4 5
13 14 14 13 13 12 12 12 12 12 12 11 11 11 11 12 12 12 12 11 12 11 11 10 10 10 9 9 8 7 6 5 4 3 3 3 3 4 5 5 5 5 5
14 14 14 14 14 13 13 13 12 12 12 12 12 12 12 12 12 13 13 12 12 12 12 11 11 11 10 10 9 8 7 7 6 5 5 4 5 5 6 6 5 6 6
15 15 15 14 14 14 13 13 13 13 13 12 13 13 12 12 13 13 13 13 13 13 13 13 12 12 11 11 10 10 9 9 8 7 6 6 6 7 7 7 7 7 7
Wind_Direction
110 111 109 108 107 111 115 119 120 119 116 113 112 110 107 106 103 100 100 98 98 96 95 99 97 96 92 89 87 84 81 79 76 70 66 64 60 55 51 57 62 56 55
124 126 121 121 116 118 124 129 133 130 127 123 121 115 110 108 107 103 99 97 96 95 94 91 90 91 87 85 84 82 79 77 72 66 61 58 55 53 53 58 59 54 56
136 139 141 135 130 131 137 143 148 146 140 134 126 118 114 111 109 104 100 99 98 95 91 87 85 87 85 84 82 79 76 73 69 63 56 52 52 51 50 53 52 53 52
140 148 158 149 145 146 154 163 166 162 156 148 137 123 119 115 108 106 103 100 97 94 89 84 84 83 81 79 79 77 73 69 62 59 51 47 48 47 50 54 50 50 49
183 175 172 169 163 162 175 185 186 179 171 162 152 136 125 117 113 110 107 102 95 89 84 80 76 78 79 77 75 73 67 64 59 57 55 50 46 44 53 50 48 46 45
216 212 195 187 182 177 187 198 202 192 184 175 164 148 136 126 119 116 109 101 94 87 82 79 75 75 73 72 71 69 66 63 57 53 53 51 49 48 47 43 42 37 37
225 220 215 215 209 204 207 211 209 202 195 188 176 163 155 141 132 124 116 107 101 93 85 82 80 80 75 72 70 65 63 60 53 47 48 47 47 44 40 38 37 31 29
231 229 234 226 218 211 214 219 215 209 205 200 194 184 173 158 147 135 122 113 104 98 91 84 78 76 72 69 66 58 52 49 49 48 46 43 43 41 35 30 27 25 22
247 240 234 225 222 224 225 224 223 217 214 209 207 204 193 180 171 156 138 125 113 105 95 84 72 66 64 64 63 55 45 38 42 45 44 44 41 36 29 22 17 17 18
263 246 246 235 226 224 232 233 228 224 222 218 219 221 214 203 198 184 163 143 131 117 99 80 64 63 65 60 54 46 40 38 38 41 39 38 35 30 24 18 16 15 15
276 259 250 247 239 231 233 239 234 228 227 227 226 228 223 217 214 207 185 167 149 131 108 76 70 69 61 48 42 39 37 32 33 38 38 32 29 26 23 18 17 15 13
284 277 265 255 250 241 239 243 243 236 234 234 232 229 228 226 223 220 205 193 169 147 120 79 75 65 54 39 35 34 40 33 28 31 35 28 27 30 26 21 20 18 14
293 283 279 266 257 253 243 244 244 241 240 239 237 233 229 227 227 222 213 204 189 176 147 94 75 57 54 46 40 42 49 34 24 24 23 24 30 35 30 21 14 14 13
299 289 279 276 264 252 246 246 246 245 241 239 235 234 237 238 233 223 214 210 203 200 187 145 79 64 53 51 51 45 34 37 33 25 32 31 34 37 33 30 24 19 16
303 294 283 282 268 254 252 250 250 252 246 240 236 241 244 243 243 232 220 217 218 215 220 240 276 344 355 28 39 37 38 36 30 20 31 41 40 37 32 27 24 19 18
306 298 285 284 275 261 254 251 255 259 252 243 240 243 248 249 247 242 231 227 222 217 220 232 268 302 330 20 34 33 33 30 33 22 37 40 43 36 32 30 27 23 20
308 298 287 280 278 269 258 255 255 258 254 251 244 245 248 247 249 247 238 231 227 222 225 235 244 257 280 348 28 32 30 38 34 27 15 24 33 31 30 29 27 26 24
312 302 291 282 279 271 261 255 256 255 257 254 251 250 246 243 247 250 243 234 229 228 231 236 241 244 245 268 338 22 16 24 25 16 8 17 32 32 31 28 26 23 23
309 302 295 284 280 273 268 256 253 254 257 255 254 252 248 244 245 245 242 235 231 231 232 238 242 246 251 259 286 324 344 347 350 354 10 16 30 32 27 25 23 19 18
303 299 297 295 284 274 272 264 255 256 257 258 255 250 247 243 242 240 243 240 233 233 235 240 245 252 259 264 280 297 318 329 330 326 350 23 39 20 9 19 18 15 11
297 295 297 296 291 281 273 268 263 261 259 258 254 250 245 243 241 241 243 241 235 234 237 242 249 256 258 265 276 286 296 300 310 318 331 4 9 1 5 14 9 10 4
294 294 293 291 289 285 275 269 267 266 263 258 255 251 247 244 241 240 240 238 233 233 239 247 252 256 260 263 270 277 284 296 303 308 333 5 1 353 343 347 353 357 354
288 290 289 286 284 282 278 273 268 266 264 256 253 251 249 244 241 240 240 241 239 238 241 249 252 256 255 257 264 270 277 289 292 295 298 309 333 331 331 327 330 334 339
283 285 285 282 281 279 276 274 268 263 266 258 254 251 249 245 244 242 242 244 245 243 245 250 253 255 257 257 260 263 268 274 276 283 296 294 303 308 314 319 319 320 328
278 280 280 279 279 277 274 271 265 262 264 262 257 253 250 245 245 245 245 247 246 247 248 251 254 256 259 261 260 260 263 268 269 277 285 290 293 298 305 309 311 311 317
277 278 277 277 276 274 272 268 263 263 265 266 257 250 249 246 245 247 246 247 247 249 250 253 255 256 257 258 258 259 260 264 267 271 276 283 290 293 297 301 304 307 310
Height
5875 5875 5876 5876 5877 5877 5877 5877 5877 5877 5877 5877 5877 5877 5877 5876 5876 5876 5877 5877 5878 5878 5879 5879 5879 5880 5880 5881 5881 5881 5882 5882 5882 5882 5882 5882 5882 5882 5882 5882 5882 5882 5881
5876 5876 5877 5877 5878 5878 5879 5879 5879 5879 5879 5879 5879 5879 5879 5879 5879 5879 5879 5880 5880 5880 5881 5881 5881 5881 5882 5882 5883 5883 5883 5883 5883 5883 5883 5884 5883 5883 5883 5883 5883 5883 5883
5877 5877 5878 5878 5879 5879 5880 5880 5880 5880 5880 5880 5881 5881 5881 5881 5881 5881 5881 5882 5882 5882 5882 5883 5883 5883 5883 5884 5884 5884 5884 5885 5885 5885 5884 5885 5885 5884 5884 5884 5884 5884 5884
5878 5878 5879 5879 5880 5880 5881 5881 5882 5882 5882 5882 5882 5882 5883 5883 5883 5883 5883 5883 5884 5884 5884 5884 5885 5885 5885 5885 5886 5886 5886 5886 5886 5886 5886 5886 5886 5885 5885 5885 5885 5885 5885
5879 5879 5880 5880 5881 5881 5882 5883 5883 5883 5883 5883 5884 5884 5884 5884 5884 5884 5884 5885 5885 5885 5886 5886 5886 5886 5886 5887 5887 5887 5887 5887 5887 5887 5887 5887 5886 5886 5886 5886 5886 5886 5886
5880 5880 5880 5881 5881 5882 5882 5883 5883 5884 5884 5884 5885 5885 5885 5885 5885 5886 5886 5886 5887 5887 5887 5887 5887 5888 5888 5888 5888 5888 5888 5888 5888 5888 5888 5887 5887 5887 5887 5887 5887 5887 5886
5880 5880 5881 5881 5882 5883 5883 5884 5884 5884 5885 5885 5886 5886 5886 5886 5887 5887 5887 5887 5888 5888 5888 5889 5889 5889 5889 5889 5889 5889 5889 5889 5889 5889 5888 5888 5888 5888 5888 5888 5888 5888 5887
5880 5880 5881 5881 5882 5883 5884 5884 5885 5885 5886 5886 5886 5887 5887 5887 5887 5888 5888 5888 5889 5889 5890 5890 5890 5890 5890 5890 5890 5890 5890 5890 5890 5889 5889 5889 5889 5889 5889 5889 5888 5888 5888
5880 5881 5881 5881 5882 5883 5884 5884 5885 5886 5886 5887 5887 5887 5888 5888 5888 5889 5889 5889 5890 5890 5891 5891 5891 5891 5891 5890 5890 5890 5890 5890 5890 5890 5890 5890 5890 5890 5889 5889 5889 5889 5889
5880 5881 5881 5882 5882 5883 5884 5884 5885 5886 5886 5887 5888 5888 5888 5889 5889 5890 5890 5890 5891 5891 5891 5892 5892 5892 5891 5891 5891 5891 5891 5891 5891 5891 5890 5890 5890 5890 5890 5890 5890 5889 5889
5881 5881 5881 5882 5882 5883 5884 5884 5885 5886 5887 5887 5888 5888 5889 5889 5890 5890 5891 5891 5891 5892 5892 5892 5892 5892 5892 5892 5892 5892 5892 5892 5892 5891 5891 5891 5891 5891 5890 5890 5890 5890 5890
5881 5881 5881 5882 5882 5883 5884 5884 5885 5886 5887 5887 5888 5889 5889 5890 5890 5890 5891 5892 5892 5893 5893 5893 5893 5893 5892 5892 5892 5892 5892 5892 5892 5891 5891 5891 5891 5891 5891 5891 5891 5890 5890
5881 5881 5881 5882 5882 5883 5884 5884 5885 5886 5887 5887 5888 5888 5889 5890 5890 5891 5891 5892 5893 5893 5893 5893 5894 5893 5893 5893 5893 5892 5892 5893 5893 5892 5892 5892 5892 5891 5891 5891 5891 5891 5890
5881 5881 5881 5882 5882 5883 5883 5884 5885 5886 5887 5887 5888 5888 5889 5889 5890 5891 5891 5892 5893 5893 5894 5894 5894 5894 5894 5893 5893 5893 5893 5893 5893 5892 5892 5892 5892 5892 5892 5891 5891 5891 5891
5880 5880 5880 5881 5881 5882 5883 5884 5885 5886 5886 5887 5888 5888 5889 5890 5890 5891 5891 5892 5893 5893 5894 5894 5894 5894 5894 5894 5894 5894 5894 5893 5893 5892 5892 5892 5892 5892 5892 5892 5892 5892 5891
5880 5880 5880 5880 5880 5881 5882 5883 5884 5885 5885 5886 5887 5888 5888 5889 5890 5890 5891 5892 5893 5893 5894 5894 5894 5894 5894 5894 5894 5894 5894 5894 5894 5893 5893 5893 5893 5893 5893 5892 5892 5892 5891
5879 5879 5879 5879 5880 5880 5881 5882 5883 5884 5884 5885 5886 5887 5888 5888 5889 5890 5891 5892 5893 5893 5894 5894 5894 5895 5895 5895 5895 5894 5894 5894 5894 5894 5893 5893 5893 5893 5893 5893 5892 5892 5892
5878 5878 5878 5878 5879 5879 5880 5881 5882 5883 5883 5884 5885 5886 5887 5887 5888 5889 5890 5891 5892 5893 5894 5894 5895 5895 5895 5895 5895 5895 5895 5894 5894 5894 5894 5894 5894 5894 5893 5893 5893 5892 5892
5877 5877 5877 5877 5878 5878 5878 5879 5880 5881 5882 5883 5884 5885 5886 5887 5887 5888 5890 5891 5892 5893 5893 5894 5894 5895 5895 5895 5895 5895 5895 5894 5894 5894 5894 5894 5894 5894 5893 5893 5893 5893 5892
5876 5876 5876 5876 5876 5876 5877 5878 5879 5880 5881 5882 5883 5883 5884 5885 5886 5887 5889 5890 5891 5892 5893 5893 5894 5894 5894 5894 5895 5895 5895 5894 5894 5894 5894 5893 5893 5893 5893 5893 5893 5892 5892
5875 5875 5875 5875 5875 5875 5875 5876 5877 5878 5879 5880 5880 5882 5883 5884 5885 5886 5887 5888 5889 5891 5892 5892 5893 5893 5893 5894 5894 5894 5894 5894 5894 5894 5893 5893 5893 5893 5893 5893 5893 5892 5892
5874 5874 5874 5874 5873 5873 5873 5874 5875 5876 5876 5877 5878 5880 5881 5882 5884 5885 5886 5887 5888 5890 5891 5891 5892 5892 5893 5893 5893 5894 5894 5894 5894 5893 5893 5893 5893 5893 5893 5892 5892 5892 5891
5872 5872 5872 5872 5872 5872 5872 5872 5873 5874 5874 5875 5877 5878 5879 5880 5882 5883 5884 5886 5887 5888 5889 5890 5891 5891 5892 5892 5892 5893 5893 5893 5893 5893 5893 5893 5893 5892 5892 5892 5892 5891 5891
5870 5870 5870 5870 5870 5870 5870 5870 5871 5871 5872 5873 5874 5876 5877 5878 5880 5881 5883 5884 5885 5886 5887 5888 5889 5890 5890 5891 5891 5891 5892 5892 5892 5892 5892 5892 5892 5892 5891 5891 5891 5890 5890
5867 5867 5867 5867 5867 5867 5867 5868 5868 5869 5870 5871 5872 5873 5875 5876 5878 5879 5881 5882 5883 5884 5885 5886 5887 5888 5888 5889 5889 5890 5890 5891 5891 5891 5891 5891 5891 5891 5890 5890 5890 5889 5889
5864 5864 5864 5864 5865 5865 5865 5865 5866 5867 5868 5868 5869 5871 5872 5874 5875 5877 5878 5880 5881 5882 5883 5884 5885 5886 5886 5887 5888 5888 5889 5889 5889 5890 5890 5890 5890 5890 5889 5889 5888 5888 5887